Regional Weather Roundup
Issued by NWS Mt. Holly, NJ

Home | Current Version | Previous Version | Text Only | Print | Product List | Glossary On
Versions: 1 2 3 4 5 6 7 8 9 10 11 12 13 14 15 16 17 18 19 20 21 22 23 24 25 26 27 28 29 30 31 32 33 34 35 36 37 38 39 40 41 42 43 44 45 46 47 48 49 50
000
ASUS41 KPHI 250911
RWRPHI

REGIONAL WEATHER ROUNDUP
NATIONAL WEATHER SERVICE MOUNT HOLLY NJ
500 AM EDT MON MAY 25 2015

NOTE:  "FAIR" INDICATES FEW OR NO CLOUDS BELOW 12,000 FEET WITH NO
SIGNIFICANT WEATHER AND/OR OBSTRUCTIONS TO VISIBILITY.

 * = STATION DOES NOT REPORT PRECIPITATION (E.G. RAIN, SNOW, ETC.)
        OR FOG.

NJZ015>026-251000-
SOUTHERN NEW JERSEY

CITY           SKY/WX    TMP DP  RH WIND       PRES   REMARKS
POMONA         PTCLDY    60  55  83 S6        30.29R
RIO GRANDE*    CLEAR     61  52  72 S6        30.30S
MILLVILLE      CLEAR     59  56  89 CALM      30.28S
WRIGHTSTOWN    PTCLDY    57  54  89 SW3       30.25S
MOUNT HOLLY    MOCLDY    58  53  84 VRB3      30.27S
TRENTON        MOCLDY    59  54  83 S3        30.26S

$$
NJZ001>014-251000-
NORTHERN NEW JERSEY

CITY           SKY/WX    TMP DP  RH WIND       PRES   REMARKS
SUSSEX         CLOUDY    56  48  74 CALM      30.27S
ANDOVER*         N/A     58  54  86 CALM      30.26S
MORRISTOWN     MOCLDY    57  52  82 CALM      30.26S
NEWARK         MOCLDY    61  52  72 SW5       30.26S
TETERBORO      MOCLDY    62  51  67 CALM      30.25S
CALDWELL       MOCLDY    62  51  67 CALM      30.26S
SOMERVILLE     PTCLDY    53  50  89 CALM      30.25R
ALLAIRE*       PTCLDY    57  48  72 SW5       30.27S
TOMS RIVER*    PTCLDY   N/A N/A N/A SW5       30.27S

$$
PAZ043-044-047-054-055-060>062-066>071-251000-
EASTERN PENNSYLVANIA

CITY           SKY/WX    TMP DP  RH WIND       PRES   REMARKS
PHILADELPHIA   CLOUDY    64  56  75 SE6       30.27S
NORTH PHILA    MOCLDY    64  54  69 S3        30.28S
BLUE BELL      MOCLDY    63  59  88 CALM      30.26S
DOYLESTOWN     MOCLDY    61  56  83 S3        30.25F
QUAKERTOWN*    MOCLDY    59  54  82 CALM      30.27S
POTTSTOWN      MOCLDY    61  57  87 CALM      30.27S
LANCASTER      PTCLDY    60  58  92 NE3       30.24S
COATESVILLE    PTCLDY    61  59  94 CALM      30.27S
READING        MOCLDY    65  56  72 SE5       30.23F
ALLENTOWN      CLOUDY    59  49  69 CALM      30.25S
MOUNT POCONO   CLOUDY    61  50  67 W5        30.27S
HAZLETON       CLOUDY    64  54  68 CALM      30.28F
WILKES BARRE   CLOUDY    63  48  58 CALM      30.24S

$$
DEZALL-MDZ008-012-015-019-020-251000-
DELAWARE AND EASTERN MARYLAND

CITY           SKY/WX    TMP DP  RH WIND       PRES   REMARKS
WILMINGTON     PTCLDY    63  57  81 S5        30.27S
DOVER          CLEAR     63  63 100 S8        30.24S
GEORGETOWN     CLEAR     59  56  89 S6        30.29S
EASTON         CLEAR     66  62  85 SW5       30.31R
PATUXENT       CLEAR     66  56  70 SW8       30.27S
OCEAN CITY     CLEAR     64  59  83 SW8       30.30S
WALLOPS ISLAND CLEAR     60  58  92 S6        30.31S
CAMBRIDGE      CLEAR     66  57  72 S5        30.28S
SALISBURY      CLEAR     57  55  93 S3        30.29S

$$
PAZ001-021-NYZ056-072-MDZ011-DCZ001-251000-
OTHER NEARBY LOCATIONS

CITY           SKY/WX    TMP DP  RH WIND       PRES   REMARKS
HARRISBURG     PTCLDY    63  56  78 E3        30.22S
STATE COLLEGE  MOCLDY    60  47  64 CALM      30.20F
WILLIAMSPORT   CLOUDY    58  51  78 CALM      30.20F
BINGHAMTON     CLOUDY    63  45  51 S5        30.23S
NEW YORK CITY  MOCLDY    65  53  65 W8        30.29R
BALTIMORE      CLEAR     60  57  89 CALM      30.25S
WASHINGTON DC  PTCLDY    67  58  72 S9        30.26S

$$


USA.gov is the U.S. government's official web portal to all federal, state and local government web resources and services.